| time (UTC) | temp F | wind direction | speed MPH | gust MPH | rain 1hr in | rain 24hr in | rain mn in | humidity % | barometer mb |
| 20260902235004 | 88 | 235 | 3.0 | 5.0 | 0.00 | 0.00 | 0.00 | 67 | 1015.4 |
| 20260902234501 | 89 | 232 | 3.0 | 5.0 | 0.00 | 0.00 | 0.00 | 66 | 1015.3 |
| 20260902233500 | 89 | 207 | 2.0 | 6.0 | 0.00 | 0.00 | 0.00 | 64 | 1015.3 |
| 20260902233002 | 90 | 233 | 3.0 | 7.0 | 0.00 | 0.00 | 0.00 | 64 | 1015.3 |
| 20260902232503 | 90 | 250 | 4.0 | 8.0 | 0.00 | 0.00 | 0.00 | 63 | 1015.4 |
| 20260902232002 | 90 | 243 | 4.0 | 8.0 | 0.00 | 0.00 | 0.00 | 63 | 1015.4 |
| 20260902231501 | 91 | 252 | 3.0 | 8.0 | 0.00 | 0.00 | 0.00 | 63 | 1015.4 |
| 20260902231001 | 91 | 245 | 4.0 | 7.0 | 0.00 | 0.00 | 0.00 | 62 | 1015.4 |
| 20260902230502 | 91 | 231 | 2.0 | 7.0 | 0.00 | 0.00 | 0.00 | 62 | 1015.4 |
| 20260902230003 | 91 | 231 | 3.0 | 6.0 | 0.00 | 0.00 | 0.00 | 62 | 1015.5 |
| 20260902225502 | 91 | 251 | 3.0 | 7.0 | 0.00 | 0.00 | 0.00 | 61 | 1015.5 |
| 20260902225002 | 91 | 241 | 4.0 | 8.0 | 0.00 | 0.00 | 0.00 | 61 | 1015.5 |
| 20260902224504 | 92 | 252 | 5.0 | 8.0 | 0.00 | 0.00 | 0.00 | 60 | 1015.5 |
| 20260902224002 | 92 | 236 | 5.0 | 10.0 | 0.00 | 0.00 | 0.00 | 60 | 1015.5 |
| 20260902223503 | 92 | 290 | 6.0 | 10.0 | 0.00 | 0.00 | 0.00 | 58 | 1015.5 |
| 20260902223003 | 92 | 248 | 7.0 | 12.0 | 0.00 | 0.00 | 0.00 | 58 | 1015.6 |
| 20260902221502 | 92 | 251 | 6.0 | 8.0 | 0.00 | 0.00 | 0.00 | 58 | 1015.6 |
| 20260902221005 | 92 | 233 | 5.0 | 10.0 | 0.00 | 0.00 | 0.00 | 59 | 1015.6 |
| 20260902220502 | 92 | 235 | 6.0 | 11.0 | 0.00 | 0.00 | 0.00 | 59 | 1015.5 |
| 20260902220005 | 93 | 226 | 7.0 | 11.0 | 0.00 | 0.00 | 0.00 | 58 | 1015.4 |
| 20260902215003 | 93 | 245 | 6.0 | 11.0 | 0.00 | 0.00 | 0.00 | 57 | 1015.4 |
| 20260902214502 | 92 | 240 | 4.0 | 11.0 | 0.00 | 0.00 | 0.00 | 57 | 1015.4 |
| 20260902213504 | 92 | 274 | 7.0 | 12.0 | 0.00 | 0.00 | 0.00 | 55 | 1015.4 |
| 20260902213003 | 92 | 259 | 8.0 | 14.0 | 0.00 | 0.00 | 0.00 | 55 | 1015.4 |
| 20260902212502 | 93 | 269 | 10.0 | 14.0 | 0.00 | 0.00 | 0.00 | 55 | 1015.4 |
| 20260902212003 | 93 | 237 | 7.0 | 11.0 | 0.00 | 0.00 | 0.00 | 55 | 1015.4 |
| 20260902211502 | 93 | 245 | 7.0 | 13.0 | 0.00 | 0.00 | 0.00 | 55 | 1015.4 |
| 20260902211004 | 93 | 248 | 9.0 | 14.0 | 0.00 | 0.00 | 0.00 | 56 | 1015.5 |
| 20260902210502 | 93 | 203 | 7.0 | 14.0 | 0.00 | 0.00 | 0.00 | 55 | 1015.5 |
| 20260902205502 | 93 | 252 | 9.0 | 13.0 | 0.00 | 0.00 | 0.00 | 55 | 1015.6 |
| 20260902205003 | 93 | 214 | 8.0 | 13.0 | 0.00 | 0.00 | 0.00 | 56 | 1015.5 |
| 20260902204003 | 93 | 268 | 9.0 | 15.0 | 0.00 | 0.00 | 0.00 | 55 | 1015.6 |
| 20260902203502 | 93 | 229 | 7.0 | 13.0 | 0.00 | 0.00 | 0.00 | 55 | 1015.6 |
| 20260902203002 | 93 | 248 | 9.0 | 13.0 | 0.00 | 0.00 | 0.00 | 53 | 1015.7 |
| 20260902202502 | 93 | 259 | 7.0 | 11.0 | 0.00 | 0.00 | 0.00 | 54 | 1015.7 |
| 20260902202005 | 93 | 253 | 7.0 | 13.0 | 0.00 | 0.00 | 0.00 | 56 | 1015.8 |
| 20260902201505 | 93 | 263 | 9.0 | 13.0 | 0.00 | 0.00 | 0.00 | 55 | 1015.9 |
| 20260902201002 | 93 | 238 | 7.0 | 13.0 | 0.00 | 0.00 | 0.00 | 56 | 1015.9 |
| 20260902200503 | 93 | 276 | 9.0 | 13.0 | 0.00 | 0.00 | 0.00 | 52 | 1015.9 |
| 20260902200004 | 93 | 287 | 5.0 | 11.0 | 0.00 | 0.00 | 0.00 | 54 | 1015.9 |
| 20260902195503 | 93 | 231 | 5.0 | 12.0 | 0.00 | 0.00 | 0.00 | 56 | 1016.0 |
| 20260902194501 | 93 | 217 | 8.0 | 14.0 | 0.00 | 0.00 | 0.00 | 55 | 1016.1 |
| 20260902194002 | 93 | 259 | 8.0 | 13.0 | 0.00 | 0.00 | 0.00 | 56 | 1016.1 |
| 20260902193501 | 93 | 271 | 6.0 | 13.0 | 0.00 | 0.00 | 0.00 | 55 | 1016.2 |
| 20260902193001 | 93 | 240 | 7.0 | 13.0 | 0.00 | 0.00 | 0.00 | 55 | 1016.3 |
| 20260902192501 | 93 | 243 | 6.0 | 13.0 | 0.00 | 0.00 | 0.00 | 58 | 1016.3 |
| 20260902192003 | 93 | 203 | 10.0 | 13.0 | 0.00 | 0.00 | 0.00 | 54 | 1016.3 |
| 20260902191501 | 93 | 252 | 7.0 | 12.0 | 0.00 | 0.00 | 0.00 | 55 | 1016.3 |
| 20260902191001 | 93 | 194 | 7.0 | 12.0 | 0.00 | 0.00 | 0.00 | 55 | 1016.4 |
| 20260902190501 | 93 | 266 | 5.0 | 10.0 | 0.00 | 0.00 | 0.00 | 57 | 1016.4 |
| 20260902190005 | 93 | 225 | 6.0 | 12.0 | 0.00 | 0.00 | 0.00 | 55 | 1016.5 |
| 20260902185001 | 93 | 257 | 6.0 | 11.0 | 0.00 | 0.00 | 0.00 | 56 | 1016.4 |
| 20260902184502 | 92 | 189 | 7.0 | 12.0 | 0.00 | 0.00 | 0.00 | 55 | 1016.4 |
| 20260902184001 | 93 | 210 | 5.0 | 12.0 | 0.00 | 0.00 | 0.00 | 58 | 1016.5 |
| 20260902183501 | 92 | 257 | 5.0 | 10.0 | 0.00 | 0.00 | 0.00 | 57 | 1016.4 |
| 20260902183001 | 92 | 250 | 6.0 | 12.0 | 0.00 | 0.00 | 0.00 | 56 | 1016.5 |
| 20260902182503 | 92 | 215 | 6.0 | 12.0 | 0.00 | 0.00 | 0.00 | 56 | 1016.6 |
| 20260902182001 | 92 | 244 | 6.0 | 13.0 | 0.00 | 0.00 | 0.00 | 59 | 1016.6 |
| 20260902181502 | 92 | 253 | 7.0 | 13.0 | 0.00 | 0.00 | 0.00 | 56 | 1016.7 |
| 20260902181001 | 92 | 244 | 7.0 | 12.0 | 0.00 | 0.00 | 0.00 | 57 | 1016.7 |
| 20260902180502 | 92 | 182 | 7.0 | 10.0 | 0.00 | 0.00 | 0.00 | 58 | 1016.7 |
| 20260902180007 | 92 | 224 | 7.0 | 13.0 | 0.00 | 0.00 | 0.00 | 57 | 1016.7 |
| 20260902175501 | 91 | 192 | 7.0 | 13.0 | 0.00 | 0.00 | 0.00 | 59 | 1016.7 |
| 20260902175002 | 91 | 197 | 6.0 | 12.0 | 0.00 | 0.00 | 0.00 | 60 | 1016.7 |
| 20260902174503 | 91 | 190 | 8.0 | 12.0 | 0.00 | 0.00 | 0.00 | 59 | 1016.7 |
| 20260902174001 | 92 | 213 | 7.0 | 12.0 | 0.00 | 0.00 | 0.00 | 58 | 1016.9 |
| 20260902173501 | 91 | 248 | 8.0 | 12.0 | 0.00 | 0.00 | 0.00 | 56 | 1016.9 |
| 20260902173002 | 92 | 236 | 8.0 | 12.0 | 0.00 | 0.00 | 0.00 | 57 | 1016.9 |
| 20260902172503 | 91 | 218 | 6.0 | 9.0 | 0.00 | 0.00 | 0.00 | 59 | 1017.0 |
| 20260902172001 | 91 | 201 | 5.0 | 10.0 | 0.00 | 0.00 | 0.00 | 60 | 1017.0 |
| 20260902171503 | 91 | 262 | 7.0 | 12.0 | 0.00 | 0.00 | 0.00 | 58 | 1017.0 |
| 20260902171004 | 91 | 243 | 8.0 | 12.0 | 0.00 | 0.00 | 0.00 | 59 | 1017.1 |
| 20260902170501 | 91 | 226 | 6.0 | 11.0 | 0.00 | 0.00 | 0.00 | 59 | 1017.1 |
| 20260902170004 | 91 | 227 | 6.0 | 11.0 | 0.00 | 0.00 | 0.00 | 60 | 1017.2 |
| 20260902165503 | 91 | 180 | 7.0 | 11.0 | 0.00 | 0.00 | 0.00 | 59 | 1017.1 |
| 20260902164502 | 91 | 186 | 6.0 | 11.0 | 0.00 | 0.00 | 0.00 | 60 | 1017.2 |
| 20260902164002 | 91 | 184 | 5.0 | 13.0 | 0.00 | 0.00 | 0.00 | 58 | 1017.3 |
| 20260902163001 | 90 | 240 | 6.0 | 11.0 | 0.00 | 0.00 | 0.00 | 59 | 1017.4 |
| 20260902162503 | 90 | 229 | 6.0 | 11.0 | 0.00 | 0.00 | 0.00 | 61 | 1017.4 |
| 20260902162002 | 89 | 216 | 8.0 | 12.0 | 0.00 | 0.00 | 0.00 | 60 | 1017.3 |
| 20260902161501 | 90 | 221 | 6.0 | 12.0 | 0.00 | 0.00 | 0.00 | 60 | 1017.4 |
| 20260902161001 | 89 | 246 | 9.0 | 13.0 | 0.00 | 0.00 | 0.00 | 60 | 1017.4 |
| 20260902160502 | 89 | 236 | 7.0 | 13.0 | 0.00 | 0.00 | 0.00 | 60 | 1017.3 |
| 20260902160008 | 89 | 255 | 6.0 | 11.0 | 0.00 | 0.00 | 0.00 | 60 | 1017.4 |
| 20260902155501 | 89 | 236 | 5.0 | 14.0 | 0.00 | 0.00 | 0.00 | 61 | 1017.5 |
| 20260902155001 | 89 | 243 | 9.0 | 14.0 | 0.00 | 0.00 | 0.00 | 60 | 1017.4 |
| 20260902154503 | 89 | 236 | 7.0 | 11.0 | 0.00 | 0.00 | 0.00 | 62 | 1017.4 |
| 20260902154001 | 89 | 224 | 8.0 | 11.0 | 0.00 | 0.00 | 0.00 | 62 | 1017.5 |
| 20260902153501 | 88 | 234 | 6.0 | 11.0 | 0.00 | 0.00 | 0.00 | 63 | 1017.5 |
| 20260902153001 | 88 | 199 | 7.0 | 11.0 | 0.00 | 0.00 | 0.00 | 63 | 1017.5 |
| 20260902152502 | 88 | 239 | 8.0 | 12.0 | 0.00 | 0.00 | 0.00 | 62 | 1017.5 |
| 20260902152001 | 88 | 240 | 7.0 | 12.0 | 0.00 | 0.00 | 0.00 | 64 | 1017.5 |
| 20260902151501 | 88 | 246 | 6.0 | 11.0 | 0.00 | 0.00 | 0.00 | 66 | 1017.5 |
| 20260902151002 | 88 | 233 | 7.0 | 11.0 | 0.00 | 0.00 | 0.00 | 65 | 1017.5 |
| 20260902150005 | 87 | 221 | 5.0 | 12.0 | 0.00 | 0.00 | 0.00 | 66 | 1017.5 |
| 20260902145504 | 86 | 234 | 6.0 | 13.0 | 0.00 | 0.00 | 0.00 | 68 | 1017.5 |
| 20260902145002 | 86 | 259 | 8.0 | 13.0 | 0.00 | 0.00 | 0.00 | 67 | 1017.5 |
| 20260902144501 | 0 | 233 | 6.0 | 10.0 | 0.00 | 0.00 | 0.00 | 1017.6 | |
| 20260902144001 | 0 | 247 | 5.0 | 10.0 | 0.00 | 0.00 | 0.00 | 1017.6 | |
| 20260902143002 | 0 | 207 | 5.0 | 10.0 | 0.00 | 0.00 | 0.00 | 1017.7 | |
| 20260902142501 | 0 | 217 | 7.0 | 10.0 | 0.00 | 0.00 | 0.00 | 1017.6 | |
| 20260902142003 | 0 | 208 | 6.0 | 8.0 | 0.00 | 0.00 | 0.00 | 1017.5 | |
| 20260902141501 | 0 | 241 | 5.0 | 7.0 | 0.00 | 0.00 | 0.00 | 1017.6 | |
| 20260902141004 | 0 | 211 | 5.0 | 8.0 | 0.00 | 0.00 | 0.00 | 1017.6 | |
| 20260902140501 | 0 | 224 | 4.0 | 9.0 | 0.00 | 0.00 | 0.00 | 1017.7 | |
| 20260902140005 | 0 | 224 | 6.0 | 9.0 | 0.00 | 0.00 | 0.00 | 1017.8 | |
| 20260902135501 | 0 | 219 | 4.0 | 7.0 | 0.00 | 0.00 | 0.00 | 1017.7 | |
| 20260902135001 | 0 | 239 | 4.0 | 7.0 | 0.00 | 0.00 | 0.00 | 1017.8 | |
| 20260902134502 | 0 | 231 | 4.0 | 8.0 | 0.00 | 0.00 | 0.00 | 1017.9 | |
| 20260902134001 | 0 | 236 | 5.0 | 8.0 | 0.00 | 0.00 | 0.00 | 1017.9 | |
| 20260902133501 | 0 | 224 | 5.0 | 10.0 | 0.00 | 0.00 | 0.00 | 1018.0 | |
| 20260902133002 | 0 | 225 | 6.0 | 10.0 | 0.00 | 0.00 | 0.00 | 1018.1 | |
| 20260902132502 | 0 | 238 | 6.0 | 10.0 | 0.00 | 0.00 | 0.00 | 1018.1 | |
| 20260902131502 | 0 | 245 | 3.0 | 7.0 | 0.00 | 0.00 | 0.00 | 1018.1 | |
| 20260902130502 | 0 | 233 | 3.0 | 6.0 | 0.00 | 0.00 | 0.00 | 1018.0 | |
| 20260902130005 | 0 | 226 | 4.0 | 7.0 | 0.00 | 0.00 | 0.00 | 1018.0 | |
| 20260902125002 | 0 | 217 | 3.0 | 6.0 | 0.00 | 0.00 | 0.00 | 1018.1 | |
| 20260902124001 | 0 | 214 | 4.0 | 6.0 | 0.00 | 0.00 | 0.00 | 1018.0 | |
| 20260902123500 | 0 | 203 | 3.0 | 5.0 | 0.00 | 0.00 | 0.00 | 1018.1 | |
| 20260902122001 | 0 | 198 | 2.0 | 6.0 | 0.00 | 0.00 | 0.00 | 1018.0 | |
| 20260902121501 | 0 | 226 | 2.0 | 4.0 | 0.00 | 0.00 | 0.00 | 1018.0 | |
| 20260902120502 | 0 | 192 | 2.0 | 4.0 | 0.00 | 0.00 | 0.00 | 1018.0 | |
| 20260902120005 | 0 | 200 | 1.0 | 3.0 | 0.00 | 0.00 | 0.00 | 1018.0 | |
| 20260902115502 | 0 | 218 | 2.0 | 3.0 | 0.00 | 0.00 | 0.00 | 1018.0 | |
| 20260902115001 | 0 | 203 | 1.0 | 4.0 | 0.00 | 0.00 | 0.00 | 1018.0 | |
| 20260902114500 | 0 | 212 | 2.0 | 4.0 | 0.00 | 0.00 | 0.00 | 1018.0 | |
| 20260902114001 | 0 | 214 | 2.0 | 4.0 | 0.00 | 0.00 | 0.00 | 1018.0 | |
| 20260902113502 | 0 | 207 | 2.0 | 4.0 | 0.00 | 0.00 | 0.00 | 1017.9 | |
| 20260902113002 | 0 | 218 | 2.0 | 4.0 | 0.00 | 0.00 | 0.00 | 1017.9 | |
| 20260902112501 | 0 | 205 | 1.0 | 4.0 | 0.00 | 0.00 | 0.00 | 1017.8 | |
| 20260902112001 | 0 | 221 | 2.0 | 5.0 | 0.00 | 0.00 | 0.00 | 1017.7 | |
| 20260902111501 | 0 | 208 | 2.0 | 6.0 | 0.00 | 0.00 | 0.00 | 1017.7 | |
| 20260902111002 | 0 | 206 | 3.0 | 6.0 | 0.00 | 0.00 | 0.00 | 1017.7 | |
| 20260902110007 | 0 | 213 | 2.0 | 5.0 | 0.00 | 0.00 | 0.00 | 1017.7 | |
| 20260902105500 | 0 | 205 | 2.0 | 4.0 | 0.00 | 0.00 | 0.00 | 1017.5 | |
| 20260902105004 | 0 | 205 | 1.0 | 4.0 | 0.00 | 0.00 | 0.00 | 1017.5 | |
| 20260902104000 | 0 | 208 | 3.0 | 5.0 | 0.00 | 0.00 | 0.00 | 1017.3 | |
| 20260902103001 | 0 | 202 | 3.0 | 4.0 | 0.00 | 0.00 | 0.00 | 1017.3 | |
| 20260902102502 | 0 | 211 | 2.0 | 4.0 | 0.00 | 0.00 | 0.00 | 1017.2 | |
| 20260902102001 | 0 | 192 | 2.0 | 6.0 | 0.00 | 0.00 | 0.00 | 1017.2 | |
| 20260902101501 | 0 | 206 | 3.0 | 6.0 | 0.00 | 0.00 | 0.00 | 1017.3 | |
| 20260902101001 | 0 | 201 | 2.0 | 5.0 | 0.00 | 0.00 | 0.00 | 1017.2 | |
| 20260902095001 | 0 | 209 | 2.0 | 4.0 | 0.00 | 0.00 | 0.00 | 1017.1 | |
| 20260902092509 | 0 | 211 | 3.0 | 4.0 | 0.00 | 0.00 | 0.00 | 1017.0 | |
| 20260902092000 | 0 | 198 | 2.0 | 4.0 | 0.00 | 0.00 | 0.00 | 1017.0 | |
| 20260902091459 | 0 | 198 | 1.0 | 4.0 | 0.00 | 0.00 | 0.00 | 1016.9 | |
| 20260902090459 | 0 | 198 | 1.0 | 4.0 | 0.00 | 0.00 | 0.00 | 1016.9 | |
| 20260902040501 | 79 | 189 | 2.0 | 4.0 | 0.00 | 0.00 | 0.00 | 84 | 1016.8 |
| 20260902040005 | 79 | 193 | 1.0 | 4.0 | 0.00 | 0.00 | 0.00 | 84 | 1016.8 |
| 20260902035500 | 79 | 193 | 1.0 | 3.0 | 0.00 | 0.00 | 0.00 | 84 | 1016.8 |
| 20260902035000 | 79 | 212 | 1.0 | 4.0 | 0.00 | 0.00 | 0.00 | 84 | 1016.9 |
| 20260902034500 | 79 | 191 | 2.0 | 4.0 | 0.00 | 0.00 | 0.00 | 84 | 1016.9 |
| 20260902034001 | 79 | 189 | 2.0 | 3.0 | 0.00 | 0.00 | 0.00 | 84 | 1016.8 |
| 20260902033501 | 79 | 191 | 1.0 | 3.0 | 0.00 | 0.00 | 0.00 | 84 | 1016.8 |
| 20260902033002 | 79 | 190 | 2.0 | 2.0 | 0.00 | 0.00 | 0.00 | 84 | 1016.8 |
| 20260902032500 | 79 | 181 | 2.0 | 2.0 | 0.00 | 0.00 | 0.00 | 83 | 1016.9 |
| 20260902032001 | 79 | 189 | 1.0 | 2.0 | 0.00 | 0.00 | 0.00 | 83 | 1016.8 |
| 20260902031504 | 79 | 191 | 1.0 | 2.0 | 0.00 | 0.00 | 0.00 | 83 | 1016.8 |
| 20260902031000 | 79 | 190 | 1.0 | 2.0 | 0.00 | 0.00 | 0.00 | 83 | 1016.9 |
| 20260902030501 | 80 | 192 | 1.0 | 1.0 | 0.00 | 0.00 | 0.00 | 83 | 1017.0 |
| 20260902030004 | 80 | 194 | 1.0 | 2.0 | 0.00 | 0.00 | 0.00 | 83 | 1016.9 |
| 20260902025500 | 80 | 194 | 1.0 | 2.0 | 0.00 | 0.00 | 0.00 | 83 | 1016.9 |
| 20260902025000 | 80 | 195 | 0.0 | 1.0 | 0.00 | 0.00 | 0.00 | 82 | 1017.0 |
| 20260902024500 | 80 | 196 | 0.0 | 1.0 | 0.00 | 0.00 | 0.00 | 82 | 1017.0 |
| 20260902023000 | 81 | 189 | 0.0 | 0.0 | 0.00 | 0.00 | 0.00 | 81 | 1016.9 |
| 20260902022500 | 81 | 188 | 0.0 | 0.0 | 0.00 | 0.00 | 0.00 | 81 | 1016.9 |
| 20260902022001 | 81 | 188 | 0.0 | 0.0 | 0.00 | 0.00 | 0.00 | 81 | 1016.8 |
| 20260902021500 | 81 | 192 | 0.0 | 0.0 | 0.00 | 0.00 | 0.00 | 81 | 1016.8 |
| 20260902021000 | 81 | 193 | 0.0 | 1.0 | 0.00 | 0.00 | 0.00 | 81 | 1016.9 |
| 20260902020500 | 81 | 192 | 0.0 | 2.0 | 0.00 | 0.00 | 0.00 | 80 | 1016.8 |
| 20260902020003 | 82 | 192 | 1.0 | 2.0 | 0.00 | 0.00 | 0.00 | 80 | 1016.8 |
| 20260902015500 | 82 | 195 | 0.0 | 1.0 | 0.00 | 0.00 | 0.00 | 80 | 1016.7 |
| 20260902015000 | 82 | 191 | 0.0 | 0.0 | 0.00 | 0.00 | 0.00 | 80 | 1016.7 |
| 20260902014500 | 82 | 191 | 0.0 | 0.0 | 0.00 | 0.00 | 0.00 | 80 | 1016.7 |
| 20260902013000 | 83 | 191 | 0.0 | 0.0 | 0.00 | 0.00 | 0.00 | 79 | 1016.6 |
| 20260902012500 | 83 | 191 | 0.0 | 0.0 | 0.00 | 0.00 | 0.00 | 79 | 1016.5 |
| 20260902012000 | 83 | 191 | 0.0 | 0.0 | 0.00 | 0.00 | 0.00 | 78 | 1016.5 |
| 20260902011502 | 83 | 192 | 0.0 | 1.0 | 0.00 | 0.00 | 0.00 | 78 | 1016.5 |
| 20260902011000 | 84 | 194 | 0.0 | 2.0 | 0.00 | 0.00 | 0.00 | 77 | 1016.4 |
| 20260902010500 | 84 | 200 | 1.0 | 2.0 | 0.00 | 0.00 | 0.00 | 76 | 1016.3 |
| 20260902010003 | 84 | 197 | 1.0 | 2.0 | 0.00 | 0.00 | 0.00 | 76 | 1016.2 |
| 20260902005501 | 85 | 190 | 1.0 | 3.0 | 0.00 | 0.00 | 0.00 | 76 | 1016.1 |
| 20260902005000 | 85 | 191 | 2.0 | 3.0 | 0.00 | 0.00 | 0.00 | 75 | 1016.1 |
| 20260902004000 | 85 | 191 | 0.0 | 1.0 | 0.00 | 0.00 | 0.00 | 74 | 1016.1 |
| 20260902003502 | 85 | 191 | 1.0 | 1.0 | 0.00 | 0.00 | 0.00 | 74 | 1016.1 |
| 20260902003002 | 86 | 191 | 1.0 | 2.0 | 0.00 | 0.00 | 0.00 | 73 | 1016.1 |
| 20260902002501 | 86 | 192 | 1.0 | 2.0 | 0.00 | 0.00 | 0.00 | 72 | 1016.1 |
| 20260902002001 | 86 | 193 | 1.0 | 4.0 | 0.00 | 0.00 | 0.00 | 71 | 1016.1 |
| 20260902001002 | 87 | 226 | 1.0 | 4.0 | 0.00 | 0.00 | 0.00 | 70 | 1016.2 |
| 20260902000501 | 88 | 216 | 2.0 | 3.0 | 0.00 | 0.00 | 0.00 | 69 | 1016.3 |
| 20260902000003 | 88 | 200 | 2.0 | 3.0 | 0.00 | 0.00 | 0.00 | 68 | 1016.2 |
| 20260901235500 | 89 | 209 | 2.0 | 3.0 | 0.00 | 0.00 | 0.00 | 67 | 1016.2 |